ZHONGXING-12

Last updated on Mon Jun 22 2026 00:03:04 GMT+0000 (Coordinated Universal Time)

1 39017U 12067A 26172.54972275 -.00000208 00000+0 00000+0 0 9994 2 39017 0.0480 93.3167 0002832 347.4279 114.3902 1.00270973 49556
UTC large
Height (km)
Speed (km/s)
/
Latitude / Longitude
Inclination (degrees)
Orbital Period (minutes)
Azimuth
Elevation
Range (km)
Doppler Factor

Next 0 passes for location: London (51.5072 / 0.1276)

No passes found over London.
ZHONGXING-12